Джон Маршалл

США     34°12′36″N   117°18′10″W
темп.,
°C
ветер,
м/с
пор.,
м/с
влажн.,
%
обл.,
%
осадки,
мм/ч
давл.,
гПа
погр.,
м
16 октября, сб
сб1623:00+12ссв44160 0.0 102173
02:00+12ссв44160 0.0 102060
05:00+11ссв44190 0.0 102055
08:00+13ссв44180 0.0 1019106
11:00+22с33100 0.0 1017975
14:00+25з3290 0.0 10141695
17:00+23ююз5490 0.0 10141393
20:00+16в22160 0.0 101612
17 октября, вс
вс1723:00+14вюв2219100 0.0 101717
02:00+13вюв222149 0.0 101717
05:00+12вюв2224100 0.0 101616
08:00+14юв22232 0.0 101646
11:00+19ююз56170 0.0 1015919
14:00+19ююз67170 0.0 10131253
17:00+17ююз57230 0.0 10131077
20:00+11ю47390 0.0 1015198
18 октября, пн
пн1823:00+9ю45530 0.0 1016171
02:00+8ююв45659 0.0 1016175
05:00+6ююв45712 0.0 1015185
08:00+7ю466738 0.0 1016519
11:00+11ю576567 0.0 1015872
14:00+11ю576774 0.1 10131027
17:00+11ююз466132 0.1 1013930
20:00+7ю22830 0.0 101583
19 октября, вт
вт1923:00+5юв11850 0.0 101648
02:00+5св11800 0.0 101623
05:00+6ссв22700 0.0 101629
08:00+8ссв22630 0.0 101683
11:00+16зсз22333 0.0 1015828
14:00+19юз32270 0.0 10131240
17:00+16ююз32365 0.0 1014526
20:00+11юв1252100 0.0 101647
20 октября, ср
ср2023:00+10в115663 0.0 101736
02:00+10в115395 0.0 101726
05:00+10св224940 0.0 101716
08:00+12св12386 0.0 101830
11:00+20юз222213 0.0 1018846
14:00+21ююз32219 0.0 10171090
17:00+19ююз222599 0.0 1017491
20:00+14вюв1237100 0.0 101837